#timestamp,LO_Frequency,Hit,StdDev 
1678262415.2,286047001.5,N
1678262435.0,286047002.1,N
1678262435.9,286047002.1,N
1678262455.8,286047004.3,Y
1678262475.6,286047001.6,P
1678262495.4,286047002.0,P
1678262515.3,286047004.0,P
1678262535.1,286047002.5,N
1678262555.8,286047002.3,N
1678262575.7,286047000.1,N
1678262595.5,286047002.5,N
1678262615.4,286047001.4,N
1678262635.2,286047000.2,N
1678262655.0,286047000.1,N
1678262655.9,286047000.1,N
1678262675.8,286047000.4,N
1678262695.6,286047000.2,N
1678262715.4,286047002.3,N
1678262735.3,286047002.1,N
1678262755.1,286046999.7,N
1678262775.9,286047000.1,N
1678262795.7,286047002.7,N
1678262815.5,286046999.8,N
1678262835.4,286046998.7,N
1678262855.2,286046997.2,N
1678262875.0,286046995.0,Y
1678262876.0,286046995.0,P
1678262895.8,286046995.3,N
1678262915.6,286046997.5,N
1678262935.5,286046997.7,N
1678262955.3,286046997.5,N
1678262975.1,286046997.3,N
1678262995.9,286046995.3,N
1678263015.7,286046995.7,N
1678263035.6,286046997.5,N
1678263055.4,286046995.0,N
1678263075.2,286046996.1,N
1678263095.1,286046996.1,N
1678263096.0,286046996.1,N
1678263115.8,286046997.6,N
1678263135.7,286046997.4,N
1678263155.5,286046999.6,N
1678263175.3,286046997.2,N
1678263195.2,286046998.3,N
1678263215.0,286047001.0,N
1678263215.9,286047001.0,N
1678263235.7,286047002.0,N
1678263255.6,286046999.7,N
1678263275.4,286047002.4,N
1678263295.3,286047000.2,N
1678263315.1,286047000.0,N
1678263316.0,286047000.0,N
1678263335.8,286046999.9,N
1678263355.7,286047001.5,N
1678263375.5,286047000.6,N
1678263395.4,286046998.1,N
1678263415.2,286047000.7,N
1678263435.0,286047002.3,N
1678263435.9,286047002.3,N
1678263455.8,286046999.9,N
1678263475.6,286047000.0,N
1678263495.4,286047002.1,N
1678263515.3,286047002.8,N
1678263535.1,286046999.8,N
1678263555.9,286047000.5,N
1678263575.7,286047000.5,N
1678263595.5,286047001.9,N
1678263615.4,286047002.3,N
1678263635.2,286047002.5,N
1678263655.1,286047004.4,N
1678263656.0,286047004.4,N
1678263675.8,286047000.2,N
1678263695.6,286047000.4,N
1678263715.5,286047000.9,N
1678263735.3,286046998.1,N
1678263755.2,286047001.5,N
1678263775.9,286047002.3,N
1678263795.7,286047000.0,N
1678263815.6,286047002.7,N
1678263835.4,286047000.3,N
1678263855.2,286047000.2,N
1678263875.1,286047002.2,N
1678263876.0,286047002.2,N
1678263895.8,286047001.9,N
1678263915.7,286047000.6,N
1678263935.5,286046998.8,N
1678263955.3,286047000.0,N
1678263975.2,286047001.0,N
1678263995.0,286046997.1,N
1678263995.9,286046997.1,N
1678264015.8,286046999.6,N
1678264035.6,286046994.9,N
1678264055.4,286046995.4,N
1678264075.3,286046993.3,Y
1678264095.1,286046997.9,P
1678264115.9,286046999.6,N
1678264135.7,286046998.4,N
1678264155.5,286047001.2,N
1678264175.4,286047001.1,N
1678264195.2,286046998.3,N
1678264215.0,286047001.1,N
1678264215.9,286047001.1,N
1678264235.8,286046998.6,N
1678264255.6,286047000.9,N
1678264275.5,286047000.4,N
1678264295.3,286047001.1,N
1678264315.1,286047000.7,N
1678264335.9,286047000.6,N
1678264355.7,286047001.1,N
1678264375.5,286046999.7,N
1678264395.4,286047000.2,N
1678264415.2,286047002.0,N
1678264435.1,286047002.8,N
1678264436.0,286047002.8,N
1678264455.8,286047002.5,N
1678264475.6,286047000.9,N
1678264495.5,286047002.6,N
1678264515.3,286047001.3,N
1678264535.1,286047000.9,N
1678264555.9,286047000.2,N
1678264575.7,286047000.4,N
1678264595.6,286047000.4,N
1678264645.4,286046998.6,E
1678264655.3,286047000.0,N
1678264675.2,286047000.7,P
1678264695.0,286046998.1,P
1678264695.9,286046998.1,N
1678264715.8,286047000.3,N
1678264735.6,286046999.0,N
1678264755.4,286047000.5,N
1678264775.3,286047000.0,N
1678264795.1,286047002.0,N
1678264815.9,286047004.3,Y
1678264835.7,286047004.2,P
1678264855.5,286047000.4,N
1678264875.4,286046996.5,N
1678264895.2,286046998.4,N
1678264915.0,286046999.4,N
1678264915.9,286046999.4,N
1678264935.8,286046999.3,N
1678264955.6,286047000.0,N
1678264975.5,286047000.0,N
1678264995.3,286047002.1,N
1678265015.1,286046999.8,N
1678265035.9,286047002.4,N
1678265055.7,286047002.3,N
1678265075.5,286047001.3,N
1678265125.4,286047002.5,E
1678265135.3,286047000.9,N
1678265155.2,286046998.2,P
1678265175.9,286046999.8,N
1678265195.7,286047000.8,N
1678265215.6,286046999.9,N
1678265235.4,286046998.2,N
1678265255.2,286047000.7,N
1678265275.1,286046999.8,N
1678265276.0,286046999.8,N
1678265295.8,286047001.2,N
1678265315.7,286047000.4,N
1678265335.5,286047002.6,N
1678265355.3,286047002.4,N
1678265375.2,286047002.8,N
1678265395.0,286047000.1,N
1678265395.9,286047000.1,N
1678265415.7,286047001.9,N
1678265435.6,286047000.2,N
1678265455.4,286047002.2,N
1678265475.3,286047002.7,N
1678265495.1,286047002.3,N
1678265496.0,286047002.3,N
1678265515.8,286046999.9,N
1678265535.7,286047000.0,N
1678265555.5,286047002.6,N
1678265575.3,286047002.7,N
1678265595.2,286047001.9,N
1678265615.0,286047004.0,N
1678265615.9,286047004.0,N
1678265635.8,286047004.1,N
1678265655.6,286047001.6,N
1678265675.4,286047003.9,N
1678265695.3,286047001.5,N
1678265715.1,286047001.6,N
1678265735.9,286047002.6,N
1678265755.7,286047001.6,N
1678265775.5,286047001.6,N
1678265795.4,286047001.6,N
1678265815.2,286047002.7,N
1678265835.0,286047001.8,N
1678265835.9,286047001.8,N
1678265855.8,286047003.1,N
1678265875.6,286047002.1,N
1678265895.5,286047002.7,N
1678265915.3,286047001.5,N
1678265935.1,286047002.4,N
1678265955.9,286047002.6,N
1678265975.7,286047004.4,Y
1678265995.5,286047002.7,P
